Tracking 18851 objects as of 25-Nov-2017
HD Live streaming from Space Station
objects crossing your sky now

FENGYUN 1C DEB

Track FENGYUN 1C DEB now!
10-day predictions


NORAD ID: 31812
Int'l Code: 1999-025CHA
Perigee: 847.4 km
Apogee: 952.8 km
Inclination: 99.0 °
Period: 102.8 minutes
Semi major axis: 7271 km
RCS: 0.0063 m2 (small)
Launch date: May 10, 1999
Source: People's Republic of China (PRC)
Launch site: Taiyaun Space Center, China (TSC)

Note: This is SATELLITE DEBRIS
aabbcc
Your satellite tracking list
Your tracking list is empty




NASA's NSSDC Master Catalog

Two Line Element Set (TLE):
1 31812U 99025CHA 17328.44220601 +.00000026 +00000-0 +46206-4 0  9990
2 31812 099.0372 041.3465 0072493 100.7267 260.2069 14.00230450274599
Source of the keplerian elements: AFSPC